Reidsville, NC

5:52 AM EDT on March 26, 2017 (GMT -0400)
Reidsville

Weather History for KSIF - December, 2012

Change the Weather History Date:

Sunday, December 30, 2012

  Actual Average (KGSO) Record (KGSO)
Temperature  
Mean Temperature 36 °F -  
Max Temperature 46 °F 47 °F 76 °F (1984)
Min Temperature 26 °F 30 °F -1 °F (1917)
Degree Days  
Heating Degree Days 29    
Moisture  
Dew Point 19 °F    
Average Humidity 50    
Maximum Humidity 77    
Minimum Humidity 32    
Precipitation  
Precipitation 0.00 in - - ()
Sea Level Pressure  
Sea Level Pressure 30.25 in    
Wind  
Wind Speed 5 mph (NW)    
Max Wind Speed 14 mph    
Max Gust Speed 21 mph    
Visibility 10 miles    
Events      
Averages and records for this station are not official NWS values.
T = Trace of Precipitation, MM = Missing Value Source: NWS Daily Summary

Daily Weather History Graph

Daily Weather History Graph

Search for Another Location

Airport or City:

Trip Planner

Search our weather history database for the weather conditions in past years. The results will help you decide how hot, cold, wet, or windy it might be!

Date:

Astronomy

Dec. 30, 2012 Rise Set
Actual Time 7:30 AM EST 5:13 PM EST
Civil Twilight 7:02 AM EST 5:42 PM EST
Nautical Twilight 6:29 AM EST 6:14 PM EST
Astronomical Twilight 5:58 AM EST 6:45 PM EST
Moon 7:38 PM EST (12/30) 8:42 AM EST (12/30)
Length of Visible Light 10h 40m
Length of Day
9h 42m
Waning Gibbous, 95% of the Moon is Illuminated
Dec 30
Waning Gibbous
Jan 4
Last Quarter
Jan 11
New
Jan 18
First Quarter
Jan 26
Full

Hourly Weather History & Observations

Time (EST) Temp. Windchill Dew Point Humidity Pressure Visibility Wind Dir Wind Speed Gust Speed Precip Events Conditions
12:15 AM 36.9 °F 34.3 °F 22.6 °F 56% 30.00 in 10.0 mi WNW 3.5 mph - N/A   Overcast
12:35 AM 37.4 °F 30.8 °F 22.1 °F 54% 30.00 in 10.0 mi NW 9.2 mph 16.1 mph N/A   Mostly Cloudy
12:55 AM 37.4 °F 29.8 °F 21.2 °F 52% 30.01 in 10.0 mi NW 11.5 mph 18.4 mph N/A   Scattered Clouds
1:15 AM 37.4 °F 32.8 °F 21.7 °F 53% 30.02 in 10.0 mi NW 5.8 mph 17.3 mph N/A   Mostly Cloudy
1:35 AM 37.4 °F 31.4 °F 21.2 °F 52% 30.02 in 10.0 mi WNW 8.1 mph - N/A   Overcast
1:55 AM 37.4 °F 32.1 °F 21.2 °F 52% 30.03 in 10.0 mi WNW 6.9 mph - N/A   Overcast
2:15 AM 37.4 °F 32.8 °F 21.7 °F 53% 30.04 in 10.0 mi WNW 5.8 mph - N/A   Overcast
2:35 AM 37.4 °F 32.8 °F 22.1 °F 54% 30.05 in 10.0 mi WNW 5.8 mph - N/A   Overcast
2:55 AM 36.5 °F 32.7 °F 22.3 °F 56% 30.06 in 10.0 mi WNW 4.6 mph - N/A   Overcast
3:15 AM 36.5 °F 32.7 °F 22.1 °F 56% 30.07 in 10.0 mi West 4.6 mph - N/A   Overcast
3:35 AM 35.6 °F 32.8 °F 21.2 °F 56% 30.08 in 10.0 mi West 3.5 mph - N/A   Overcast
3:55 AM 34.9 °F 29.9 °F 21.2 °F 57% 30.08 in 10.0 mi West 5.8 mph - N/A   Mostly Cloudy
4:15 AM 34.9 °F 30.8 °F 20.8 °F 57% 30.09 in 10.0 mi WNW 4.6 mph - N/A   Mostly Cloudy
4:35 AM 35.6 °F 31.7 °F 19.8 °F 53% 30.11 in 10.0 mi WNW 4.6 mph - N/A   Overcast
4:55 AM 35.1 °F 30.1 °F 19.2 °F 53% 30.11 in 10.0 mi NW 5.8 mph - N/A   Overcast
5:15 AM 34.3 °F 30.2 °F 18.3 °F 52% 30.12 in 10.0 mi WNW 4.6 mph - N/A   Mostly Cloudy
5:35 AM 33.6 °F - 18.1 °F 53% 30.14 in 10.0 mi Calm Calm - N/A   Scattered Clouds
5:55 AM 30.2 °F - 19.8 °F 65% 30.15 in 10.0 mi Calm Calm - N/A   Scattered Clouds
6:15 AM 32.5 °F 28.1 °F 18.5 °F 56% 30.17 in 10.0 mi NW 4.6 mph - N/A   Scattered Clouds
6:35 AM 33.4 °F 27.3 °F 18.1 °F 54% 30.18 in 10.0 mi NW 6.9 mph 17.3 mph N/A   Clear
6:55 AM 33.1 °F 26.9 °F 18.0 °F 54% 30.19 in 10.0 mi NNW 6.9 mph - N/A   Clear
7:15 AM 33.1 °F 23.4 °F 17.6 °F 53% 30.21 in 10.0 mi NW 13.8 mph 20.7 mph N/A   Clear
7:35 AM 32.9 °F - 17.6 °F 53% 30.22 in 10.0 mi Calm Calm - N/A   Clear
7:55 AM 32.5 °F 29.3 °F 17.4 °F 54% 30.23 in 10.0 mi North 3.5 mph - N/A   Clear
8:15 AM 33.4 °F - 17.6 °F 52% 30.25 in 10.0 mi Calm Calm - N/A   Clear
8:35 AM 34.2 °F - 18.1 °F 52% 30.26 in 10.0 mi Calm Calm - N/A   Clear
8:55 AM 34.9 °F 30.8 °F 18.1 °F 51% 30.26 in 10.0 mi NW 4.6 mph - N/A   Clear
9:15 AM 35.6 °F 27.5 °F 18.5 °F 50% 30.27 in 10.0 mi WNW 11.5 mph - N/A   Clear
9:35 AM 36.5 °F 30.3 °F 18.7 °F 49% 30.28 in 10.0 mi NW 8.1 mph - N/A   Clear
9:55 AM 36.7 °F 29.9 °F 18.9 °F 49% 30.30 in 10.0 mi NNW 9.2 mph 16.1 mph N/A   Clear
10:15 AM 37.4 °F 33.8 °F 19.2 °F 48% 30.31 in 10.0 mi NW 4.6 mph - N/A   Clear
10:35 AM 38.3 °F 31.9 °F 19.0 °F 46% 30.32 in 10.0 mi NNW 9.2 mph - N/A   Clear
10:55 AM 39.2 °F 37.0 °F 19.2 °F 45% 30.31 in 10.0 mi NNW 3.5 mph - N/A   Clear
11:15 AM 39.9 °F 34.5 °F 19.4 °F 44% 30.32 in 10.0 mi WNW 8.1 mph - N/A   Clear
11:35 AM 41.2 °F 38.2 °F 18.9 °F 41% 30.30 in 10.0 mi NW 4.6 mph - N/A   Clear
11:55 AM 41.7 °F 37.3 °F 18.1 °F 39% 30.30 in 10.0 mi NW 6.9 mph - N/A   Clear
12:15 PM 42.1 °F 39.2 °F 17.4 °F 37% 30.30 in 10.0 mi North 4.6 mph - N/A   Clear
12:35 PM 43.0 °F 40.3 °F 16.7 °F 35% 30.29 in 10.0 mi North 4.6 mph - N/A   Clear
12:55 PM 44.1 °F 41.5 °F 16.9 °F 34% 30.29 in 10.0 mi NNW 4.6 mph - N/A   Clear
1:15 PM 45.1 °F - 17.4 °F 33% 30.29 in 10.0 mi Calm Calm - N/A   Clear
1:35 PM 45.3 °F 43.0 °F 16.5 °F 32% 30.28 in 10.0 mi NNW 4.6 mph - N/A   Clear
1:55 PM 45.0 °F 42.6 °F 17.1 °F 33% 30.28 in 10.0 mi WNW 4.6 mph - N/A   Clear
2:15 PM 45.3 °F - 17.2 °F 33% 30.29 in 10.0 mi Calm Calm - N/A   Clear
2:35 PM 46.4 °F 43.5 °F 17.8 °F 32% 30.30 in 10.0 mi West 5.8 mph - N/A   Clear
2:55 PM 45.5 °F 40.8 °F 19.0 °F 35% 30.31 in 10.0 mi WSW 9.2 mph - N/A   Clear
3:15 PM 45.5 °F 42.5 °F 17.6 °F 33% 30.31 in 10.0 mi West 5.8 mph - N/A   Clear
3:35 PM 45.1 °F 39.9 °F 17.4 °F 33% 30.31 in 10.0 mi WNW 10.4 mph 16.1 mph N/A   Clear
3:55 PM 44.2 °F 40.3 °F 16.7 °F 33% 30.31 in 10.0 mi West 6.9 mph - N/A   Clear
4:15 PM 43.9 °F - 16.3 °F 33% 30.31 in 10.0 mi Calm Calm - N/A   Clear
4:35 PM 43.0 °F 38.8 °F 17.2 °F 36% 30.31 in 10.0 mi West 6.9 mph - N/A   Clear
4:55 PM 41.9 °F 40.0 °F 16.7 °F 36% 30.30 in 10.0 mi WNW 3.5 mph - N/A   Clear
5:15 PM 36.7 °F - 20.5 °F 52% 30.32 in 10.0 mi Calm Calm - N/A   Clear
5:35 PM 38.1 °F - 18.3 °F 45% 30.32 in 10.0 mi Calm Calm - N/A   Clear
5:55 PM 32.2 °F - 21.0 °F 63% 30.33 in 10.0 mi Calm Calm - N/A   Clear
6:15 PM 32.5 °F 29.3 °F 19.9 °F 60% 30.34 in 10.0 mi West 3.5 mph - N/A   Clear
6:35 PM 31.3 °F - 21.0 °F 66% 30.36 in 10.0 mi Calm Calm - N/A   Clear
6:55 PM 32.4 °F 27.9 °F 19.4 °F 59% 30.36 in 10.0 mi WNW 4.6 mph - N/A   Clear
7:15 PM 31.3 °F 26.6 °F 19.9 °F 63% 30.37 in 10.0 mi WNW 4.6 mph - N/A   Clear
7:35 PM 30.0 °F 26.5 °F 19.4 °F 65% 30.38 in 10.0 mi NW 3.5 mph - N/A   Clear
7:55 PM 33.3 °F 30.2 °F 18.0 °F 53% 30.38 in 10.0 mi NW 3.5 mph - N/A   Clear
8:15 PM 34.7 °F 29.6 °F 17.6 °F 50% 30.37 in 10.0 mi NNW 5.8 mph - N/A   Clear
8:35 PM 35.1 °F 31.0 °F 18.0 °F 50% 30.37 in 10.0 mi NW 4.6 mph - N/A   Clear
8:55 PM 35.1 °F 30.1 °F 18.5 °F 51% 30.37 in 10.0 mi WNW 5.8 mph - N/A   Clear
9:15 PM 34.9 °F 30.8 °F 18.3 °F 51% 30.36 in 10.0 mi WNW 4.6 mph - N/A   Clear
9:35 PM 34.9 °F 30.8 °F 18.5 °F 51% 30.37 in 10.0 mi West 4.6 mph - N/A   Clear
9:55 PM 34.0 °F 29.8 °F 18.7 °F 54% 30.38 in 10.0 mi WSW 4.6 mph - N/A   Clear
10:15 PM 32.2 °F - 19.0 °F 58% 30.38 in 10.0 mi Calm Calm - N/A   Clear
10:35 PM 29.7 °F - 19.8 °F 67% 30.38 in 10.0 mi Calm Calm - N/A   Clear
10:55 PM 29.8 °F - 19.6 °F 66% 30.38 in 10.0 mi Calm Calm - N/A   Clear
11:15 PM 26.8 °F - 20.5 °F 77% 30.38 in 10.0 mi Calm Calm - N/A   Clear
11:35 PM 27.3 °F - 20.1 °F 74% 30.38 in 10.0 mi Calm Calm - N/A   Clear
11:55 PM 26.2 °F - 19.9 °F 77% 30.37 in 10.0 mi Calm Calm - N/A   Clear